,,Stat5,,Stat1,,Stat2,,Stat3,,Stat4,,Wind1,,Wind1,
time,status,PA1M_AVG,status,PR1M_SUM,status,RH1M_AVG,status,SR1M_AVG,status,TA1M_AVG,status,W1dAve1m,status,W1sAve1m,
2003-04-25, 00:00:01,VALID,916.673,VALID,0,VALID,98.8278,VALID,0.254712,VALID,21.9373,VALID,30,VALID,0.670117,
2003-04-25, 00:01:00,VALID,916.679,VALID,0,VALID,98.9334,VALID,0.339617,VALID,21.9691,VALID,19,VALID,0.707422,
2003-04-25, 00:02:00,VALID,916.664,VALID,0,VALID,98.9194,VALID,0.305655,VALID,21.9678,VALID,14,VALID,0.632601,
2003-04-25, 00:03:00,VALID,916.686,VALID,0,VALID,98.9486,VALID,0.254712,VALID,21.9681,VALID,4,VALID,0.525971,
2003-04-25, 00:04:00,VALID,916.662,VALID,0,VALID,98.9957,VALID,0.288674,VALID,21.9837,VALID,5,VALID,0.341346,
2003-04-25, 00:05:00,VALID,916.646,VALID,0,VALID,98.941,VALID,0.254712,VALID,21.9743,VALID,5,VALID,0.201275,
2003-04-25, 00:06:00,VALID,916.61,VALID,0,VALID,98.9753,VALID,0.322636,VALID,21.9745,VALID,5,VALID,0.0188643,
2003-04-25, 00:07:00,VALID,916.578,VALID,0,VALID,98.9957,VALID,0.220751,VALID,21.9675,VALID,5,VALID,0.0871711,
2003-04-25, 00:08:00,VALID,916.525,VALID,0,VALID,98.9715,VALID,0.271693,VALID,21.978,VALID,5,VALID,0.172743,
2003-04-25, 00:09:00,VALID,916.482,VALID,0,VALID,98.9601,VALID,0.152827,VALID,21.9565,VALID,5,VALID,0.105035,
2003-04-25, 00:10:00,VALID,916.431,VALID,0,VALID,98.9766,VALID,0.20377,VALID,21.9789,VALID,5,VALID,0.00126689,
2003-04-25, 00:11:00,VALID,916.403,VALID,0,VALID,99.0707,VALID,0.254712,VALID,22.0177,VALID,5,VALID,0.279871,
2003-04-25, 00:12:00,VALID,916.357,VALID,0,VALID,99.0987,VALID,0.20377,VALID,22.0468,VALID,6,VALID,0.668069,
2003-04-25, 00:13:00,VALID,916.336,VALID,0,VALID,99.0097,VALID,0.118866,VALID,22.0565,VALID,8,VALID,0.999566,
2003-04-25, 00:14:00,VALID,916.322,VALID,0,VALID,98.8533,VALID,0.186789,VALID,21.9956,VALID,11,VALID,1.11719,
2003-04-25, 00:15:00,VALID,916.289,VALID,0,VALID,98.7846,VALID,0.118866,VALID,21.9368,VALID,11,VALID,0.94963,
2003-04-25, 00:16:00,VALID,916.242,VALID,0,VALID,98.8774,VALID,0.135847,VALID,21.9268,VALID,9,VALID,0.667683,
2003-04-25, 00:17:00,VALID,916.203,VALID,0,VALID,98.8774,VALID,0.169808,VALID,21.9112,VALID,333,VALID,0.437706,
2003-04-25, 00:18:00,VALID,916.182,VALID,0,VALID,98.8291,VALID,0.152827,VALID,21.8853,VALID,9,VALID,0.976563,
2003-04-25, 00:19:00,VALID,916.149,VALID,0,VALID,98.9067,VALID,0.169808,VALID,21.8654,VALID,15,VALID,0.411607,
2003-04-25, 00:20:00,VALID,916.141,VALID,0,VALID,99.0351,VALID,0.101885,VALID,21.8891,VALID,15,VALID,0.136924,
2003-04-25, 00:21:00,VALID,916.155,VALID,0,VALID,99.0427,VALID,0.0849042,VALID,21.901,VALID,352,VALID,0.325893,
2003-04-25, 00:22:00,VALID,916.186,VALID,0,VALID,98.9232,VALID,0.20377,VALID,21.8559,VALID,37,VALID,0.564787,
2003-04-25, 00:23:00,VALID,916.222,VALID,0,VALID,98.9168,VALID,0.152827,VALID,21.8239,VALID,43,VALID,0.879808,
2003-04-25, 00:24:00,VALID,916.251,VALID,0,VALID,98.955,VALID,0.152827,VALID,21.8139,VALID,35,VALID,1.0845,
2003-04-25, 00:25:00,VALID,916.271,VALID,0,VALID,98.9346,VALID,0.20377,VALID,21.7783,VALID,33,VALID,0.896176,
2003-04-25, 00:26:00,VALID,916.278,VALID,0,VALID,98.9448,VALID,0.118866,VALID,21.733,VALID,39,VALID,0.737109,
2003-04-25, 00:27:00,VALID,916.259,VALID,0,VALID,99.0478,VALID,0.152827,VALID,21.7627,VALID,39,VALID,0.523232,
2003-04-25, 00:28:00,VALID,916.232,VALID,0,VALID,99.0885,VALID,0.20377,VALID,21.746,VALID,39,VALID,0.349451,
2003-04-25, 00:29:00,VALID,916.209,VALID,0,VALID,99.1076,VALID,0.152827,VALID,21.7535,VALID,39,VALID,0.0320946,
2003-04-25, 00:30:00,VALID,916.173,VALID,0,VALID,99.1419,VALID,0.152827,VALID,21.7557,VALID,39,VALID,0,
2003-04-25, 00:31:01,VALID,916.154,VALID,0,VALID,99.1661,VALID,0.186789,VALID,21.7686,VALID,39,VALID,0,
2003-04-25, 00:32:00,VALID,916.128,VALID,0,VALID,99.1928,VALID,0.186789,VALID,21.7753,VALID,39,VALID,0,
2003-04-25, 00:33:00,VALID,916.116,VALID,0,VALID,99.1801,VALID,0.169808,VALID,21.7756,VALID,39,VALID,0,
2003-04-25, 00:34:00,VALID,916.121,VALID,0,VALID,99.2157,VALID,0.220751,VALID,21.7853,VALID,39,VALID,0.111842,
2003-04-25, 00:35:00,VALID,916.113,VALID,0,VALID,99.2564,VALID,0.152827,VALID,21.7983,VALID,39,VALID,0.348184,
2003-04-25, 00:36:00,VALID,916.103,VALID,0,VALID,99.2805,VALID,0.237732,VALID,21.8239,VALID,39,VALID,0.355273,
2003-04-25, 00:37:00,VALID,916.091,VALID,0,VALID,99.3034,VALID,0.237732,VALID,21.8533,VALID,33,VALID,0.390224,
2003-04-25, 00:38:00,VALID,916.076,VALID,0,VALID,99.2894,VALID,0.135847,VALID,21.8344,VALID,22,VALID,0.48163,
2003-04-25, 00:39:00,VALID,916.068,VALID,0,VALID,99.2729,VALID,0.186789,VALID,21.8107,VALID,11,VALID,0.431166,
2003-04-25, 00:40:00,VALID,916.078,VALID,0,VALID,99.25,VALID,0.118866,VALID,21.8047,VALID,6,VALID,0.66174,
2003-04-25, 00:41:00,VALID,916.086,VALID,0,VALID,99.25,VALID,0.169808,VALID,21.8015,VALID,20,VALID,0.802679,
2003-04-25, 00:42:00,VALID,916.106,VALID,0,VALID,99.2983,VALID,0.20377,VALID,21.8374,VALID,33,VALID,0.199958,
2003-04-25, 00:43:00,VALID,916.123,VALID,0,VALID,99.3072,VALID,0.152827,VALID,21.8592,VALID,33,VALID,0,
2003-04-25, 00:44:01,VALID,916.115,VALID,0,VALID,99.3149,VALID,0.186789,VALID,21.8498,VALID,33,VALID,0,
2003-04-25, 00:45:00,VALID,916.093,VALID,0,VALID,99.2958,VALID,0.135847,VALID,21.86,VALID,33,VALID,0,
2003-04-25, 00:46:01,VALID,916.065,VALID,0,VALID,99.2932,VALID,0.135847,VALID,21.8495,VALID,33,VALID,0.0504954,
2003-04-25, 00:47:00,VALID,916.042,VALID,0,VALID,99.2932,VALID,0.186789,VALID,21.8468,VALID,96,VALID,0.332442,
2003-04-25, 00:48:00,VALID,916.016,VALID,0,VALID,99.2856,VALID,0.118866,VALID,21.8336,VALID,173,VALID,0.521382,
2003-04-25, 00:49:00,VALID,915.987,VALID,0,VALID,99.2678,VALID,0.169808,VALID,21.8309,VALID,176,VALID,0.481027,
2003-04-25, 00:50:00,VALID,915.983,VALID,0,VALID,99.2615,VALID,0.220751,VALID,21.8042,VALID,171,VALID,0.377878,
2003-04-25, 00:51:00,VALID,915.984,VALID,0,VALID,99.2398,VALID,0.169808,VALID,21.7983,VALID,168,VALID,0.286384,
2003-04-25, 00:52:00,VALID,915.991,VALID,0,VALID,99.2525,VALID,0.118866,VALID,21.7791,VALID,168,VALID,0.0623095,
2003-04-25, 00:53:00,VALID,916.009,VALID,0,VALID,99.2627,VALID,0.186789,VALID,21.7923,VALID,168,VALID,0.0629006,
2003-04-25, 00:54:00,VALID,916.021,VALID,0,VALID,99.2475,VALID,0.220751,VALID,21.7853,VALID,168,VALID,0.00328947,
2003-04-25, 00:55:00,VALID,916.032,VALID,0,VALID,99.2589,VALID,0.20377,VALID,21.7918,VALID,168,VALID,0.161184,
2003-04-25, 00:56:00,VALID,916.046,VALID,0,VALID,99.2805,VALID,0.271693,VALID,21.798,VALID,168,VALID,0.128906,
2003-04-25, 00:57:00,VALID,916.079,VALID,0,VALID,99.2958,VALID,0.220751,VALID,21.8209,VALID,167,VALID,0.231908,
2003-04-25, 00:58:00,VALID,916.094,VALID,0,VALID,99.2996,VALID,0.20377,VALID,21.8303,VALID,167,VALID,0.254434,
2003-04-25, 00:59:00,VALID,916.121,VALID,0,VALID,99.3174,VALID,0.254712,VALID,21.8503,VALID,167,VALID,0.0517314,
2003-04-25, 01:00:00,VALID,916.132,VALID,0,VALID,99.292,VALID,0.186789,VALID,21.8462,VALID,167,VALID,0.0766059,
2003-04-25, 01:01:01,VALID,916.158,VALID,0,VALID,99.2055,VALID,0.237732,VALID,21.8144,VALID,160,VALID,0.299777,
2003-04-25, 01:02:00,VALID,916.155,VALID,0,VALID,99.1496,VALID,0.237732,VALID,21.795,VALID,153,VALID,0.447027,
2003-04-25, 01:03:00,VALID,916.171,VALID,0,VALID,99.1534,VALID,0.271693,VALID,21.7753,VALID,154,VALID,0.308488,
2003-04-25, 01:04:01,VALID,916.184,VALID,0,VALID,99.175,VALID,0.237732,VALID,21.7656,VALID,154,VALID,0.202714,
2003-04-25, 01:05:00,VALID,916.189,VALID,0,VALID,99.1966,VALID,0.271693,VALID,21.7589,VALID,154,VALID,0.00760135,
2003-04-25, 01:06:00,VALID,916.185,VALID,0,VALID,99.1839,VALID,0.254712,VALID,21.7594,VALID,182,VALID,0.184375,
2003-04-25, 01:07:00,VALID,916.177,VALID,0,VALID,99.1724,VALID,0.20377,VALID,21.7363,VALID,196,VALID,0.102764,
2003-04-25, 01:08:00,VALID,916.172,VALID,0,VALID,99.1699,VALID,0.20377,VALID,21.7236,VALID,209,VALID,0.0692568,
2003-04-25, 01:09:00,VALID,916.157,VALID,0,VALID,99.2322,VALID,0.220751,VALID,21.7592,VALID,290,VALID,0.165541,
2003-04-25, 01:10:00,VALID,916.129,VALID,0,VALID,99.2335,VALID,0.20377,VALID,21.7624,VALID,325,VALID,0.293497,
2003-04-25, 01:11:00,VALID,916.108,VALID,0,VALID,99.1953,VALID,0.220751,VALID,21.7565,VALID,325,VALID,0.0899554,
2003-04-25, 01:12:01,VALID,916.083,VALID,0,VALID,99.1902,VALID,0.169808,VALID,21.7497,VALID,325,VALID,0.0405405,
2003-04-25, 01:13:00,VALID,916.064,VALID,0,VALID,99.1928,VALID,0.186789,VALID,21.7654,VALID,325,VALID,0.0274493,
2003-04-25, 01:14:01,VALID,916.028,VALID,0,VALID,99.2017,VALID,0.237732,VALID,21.7627,VALID,329,VALID,0.253084,
2003-04-25, 01:15:00,VALID,916.016,VALID,0,VALID,99.208,VALID,0.20377,VALID,21.7856,VALID,352,VALID,0.520765,
2003-04-25, 01:16:01,VALID,916.006,VALID,0,VALID,99.2182,VALID,0.20377,VALID,21.8047,VALID,12,VALID,0.677782,
2003-04-25, 01:17:00,VALID,915.997,VALID,0,VALID,99.1877,VALID,0.237732,VALID,21.8147,VALID,12,VALID,0.800164,
2003-04-25, 01:18:00,VALID,915.992,VALID,0,VALID,99.0847,VALID,0.220751,VALID,21.7883,VALID,13,VALID,0.61616,
2003-04-25, 01:19:01,VALID,915.991,VALID,0,VALID,99.0377,VALID,0.254712,VALID,21.7433,VALID,22,VALID,0.498437,
2003-04-25, 01:20:00,VALID,915.984,VALID,0,VALID,99.1139,VALID,0.20377,VALID,21.7465,VALID,25,VALID,0.189556,
2003-04-25, 01:21:00,VALID,915.975,VALID,0,VALID,99.0377,VALID,0.169808,VALID,21.7462,VALID,25,VALID,0.196205,
2003-04-25, 01:22:00,VALID,915.931,VALID,0,VALID,99.002,VALID,0.254712,VALID,21.7274,VALID,46,VALID,0.18064,
2003-04-25, 01:23:00,VALID,915.901,VALID,0,VALID,99.0453,VALID,0.220751,VALID,21.7004,VALID,58,VALID,0.142228,
2003-04-25, 01:24:00,VALID,915.863,VALID,0,VALID,99.0847,VALID,0.220751,VALID,21.7204,VALID,130,VALID,0.300987,
2003-04-25, 01:25:00,VALID,915.826,VALID,0,VALID,99.0707,VALID,0.271693,VALID,21.7098,VALID,150,VALID,0.470806,
2003-04-25, 01:26:00,VALID,915.794,VALID,0,VALID,99.0694,VALID,0.186789,VALID,21.7147,VALID,162,VALID,0.514258,
2003-04-25, 01:27:00,VALID,915.78,VALID,0,VALID,99.058,VALID,0.169808,VALID,21.6945,VALID,163,VALID,0.634252,
2003-04-25, 01:28:00,VALID,915.769,VALID,0,VALID,99.0402,VALID,0.237732,VALID,21.6818,VALID,163,VALID,0.614231,
2003-04-25, 01:29:00,VALID,915.772,VALID,0,VALID,99.0313,VALID,0.186789,VALID,21.6689,VALID,156,VALID,0.445313,
2003-04-25, 01:30:00,VALID,915.789,VALID,0,VALID,99.0389,VALID,0.186789,VALID,21.6659,VALID,153,VALID,0.394097,
2003-04-25, 01:31:01,VALID,915.818,VALID,0,VALID,99.0694,VALID,0.186789,VALID,21.653,VALID,128,VALID,0.238393,
2003-04-25, 01:32:00,VALID,915.839,VALID,0,VALID,99.1,VALID,0.186789,VALID,21.6624,VALID,56,VALID,0.522294,
2003-04-25, 01:33:00,VALID,915.856,VALID,0,VALID,99.1139,VALID,0.186789,VALID,21.6686,VALID,55,VALID,0.990709,
2003-04-25, 01:34:01,VALID,915.881,VALID,0,VALID,98.9792,VALID,0.20377,VALID,21.6398,VALID,60,VALID,1.09046,
2003-04-25, 01:35:00,VALID,915.883,VALID,0,VALID,98.9931,VALID,0.169808,VALID,21.5915,VALID,40,VALID,1.01753,
2003-04-25, 01:36:00,VALID,915.864,VALID,0,VALID,99.0936,VALID,0.237732,VALID,21.598,VALID,34,VALID,0.77168,
2003-04-25, 01:37:00,VALID,915.849,VALID,0,VALID,99.1394,VALID,0.254712,VALID,21.5885,VALID,33,VALID,0.771434,
2003-04-25, 01:38:00,VALID,915.802,VALID,0,VALID,99.1305,VALID,0.186789,VALID,21.5853,VALID,37,VALID,0.78315,
2003-04-25, 01:39:00,VALID,915.777,VALID,0,VALID,99.119,VALID,0.254712,VALID,21.5643,VALID,61,VALID,0.649704,
2003-04-25, 01:40:00,VALID,915.748,VALID,0,VALID,99.0466,VALID,0.0679233,VALID,21.5449,VALID,78,VALID,0.549831,
2003-04-25, 01:41:00,VALID,915.714,VALID,0,VALID,99.0694,VALID,0.118866,VALID,21.5249,VALID,76,VALID,0.515848,
2003-04-25, 01:42:01,VALID,915.691,VALID,0,VALID,99.0135,VALID,0.118866,VALID,21.5158,VALID,81,VALID,0.782306,
2003-04-25, 01:43:00,VALID,915.674,VALID,0,VALID,99.0389,VALID,0.0679233,VALID,21.4729,VALID,76,VALID,0.563345,
2003-04-25, 01:44:01,VALID,915.651,VALID,0,VALID,99.0822,VALID,0.0849042,VALID,21.4708,VALID,76,VALID,0.326686,
2003-04-25, 01:45:00,VALID,915.637,VALID,0,VALID,99.1826,VALID,0.101885,VALID,21.467,VALID,58,VALID,0.322574,
2003-04-25, 01:46:01,VALID,915.626,VALID,0,VALID,99.1979,VALID,0.0679233,VALID,21.4861,VALID,49,VALID,0.468369,
2003-04-25, 01:47:00,VALID,915.625,VALID,0,VALID,99.1991,VALID,0.118866,VALID,21.4799,VALID,47,VALID,0.739309,
2003-04-25, 01:48:00,VALID,915.621,VALID,0,VALID,99.1839,VALID,0.0509425,VALID,21.4867,VALID,54,VALID,0.64597,
2003-04-25, 01:49:01,VALID,915.615,VALID,0,VALID,99.147,VALID,0.0339617,VALID,21.457,VALID,88,VALID,0.786384,
2003-04-25, 01:50:00,VALID,915.604,VALID,0,VALID,99.1076,VALID,0.152827,VALID,21.4543,VALID,93,VALID,0.692229,
2003-04-25, 01:51:00,VALID,915.606,VALID,0,VALID,99.1368,VALID,0.0339617,VALID,21.4478,VALID,108,VALID,0.334598,
2003-04-25, 01:52:01,VALID,915.58,VALID,0,VALID,99.1966,VALID,0.0339617,VALID,21.4513,VALID,112,VALID,0.234375,
2003-04-25, 01:53:00,VALID,915.584,VALID,0,VALID,99.2093,VALID,0.0679233,VALID,21.4611,VALID,112,VALID,0.130208,
2003-04-25, 01:54:00,VALID,915.567,VALID,0,VALID,99.2373,VALID,0.288674,VALID,21.464,VALID,112,VALID,0.00349507,
2003-04-25, 01:55:00,VALID,915.559,VALID,0,VALID,99.25,VALID,0.237732,VALID,21.4769,VALID,112,VALID,0,
2003-04-25, 01:56:00,VALID,915.545,VALID,0,VALID,99.2373,VALID,0.339617,VALID,21.4769,VALID,112,VALID,0.00703125,
2003-04-25, 01:57:00,VALID,915.535,VALID,0,VALID,99.25,VALID,0.305655,VALID,21.4901,VALID,113,VALID,0.134457,
2003-04-25, 01:58:00,VALID,915.538,VALID,0,VALID,99.2208,VALID,0.305655,VALID,21.4769,VALID,159,VALID,0.201014,
2003-04-25, 01:59:01,VALID,915.547,VALID,0,VALID,99.222,VALID,0.322636,VALID,21.4737,VALID,225,VALID,0.135557,
2003-04-25, 02:00:00,VALID,915.556,VALID,0,VALID,99.2144,VALID,0.237732,VALID,21.4772,VALID,225,VALID,0.103516,
2003-04-25, 02:01:01,VALID,915.552,VALID,0,VALID,99.2144,VALID,0.305655,VALID,21.4745,VALID,225,VALID,0,
2003-04-25, 02:02:00,VALID,915.565,VALID,0,VALID,99.2119,VALID,0.288674,VALID,21.4767,VALID,225,VALID,0.048971,
2003-04-25, 02:03:00,VALID,915.565,VALID,0,VALID,99.2068,VALID,0.322636,VALID,21.4928,VALID,183,VALID,0.397804,
2003-04-25, 02:04:01,VALID,915.59,VALID,0,VALID,99.1279,VALID,0.305655,VALID,21.4737,VALID,153,VALID,0.636513,
2003-04-25, 02:05:00,VALID,915.588,VALID,0,VALID,99.0872,VALID,0.356597,VALID,21.4675,VALID,112,VALID,0.512669,
2003-04-25, 02:06:01,VALID,915.62,VALID,0,VALID,99.0669,VALID,0.322636,VALID,21.4554,VALID,136,VALID,0.903125,
2003-04-25, 02:07:00,VALID,915.643,VALID,0,VALID,99.0771,VALID,0.271693,VALID,21.4225,VALID,149,VALID,1.20313,
2003-04-25, 02:08:00,VALID,915.661,VALID,0,VALID,99.1114,VALID,0.271693,VALID,21.3928,VALID,154,VALID,0.870566,
2003-04-25, 02:09:00,VALID,915.688,VALID,0,VALID,99.1559,VALID,0.186789,VALID,21.3945,VALID,135,VALID,0.485431,
2003-04-25, 02:10:00,VALID,915.695,VALID,0,VALID,99.1915,VALID,0.20377,VALID,21.388,VALID,116,VALID,0.521748,
2003-04-25, 02:11:00,VALID,915.708,VALID,0,VALID,99.1826,VALID,0.254712,VALID,21.3947,VALID,131,VALID,0.895759,
2003-04-25, 02:12:01,VALID,915.706,VALID,0,VALID,99.2322,VALID,0.169808,VALID,21.3853,VALID,139,VALID,0.200802,
2003-04-25, 02:13:01,VALID,915.69,VALID,0,VALID,99.2525,VALID,0.169808,VALID,21.3845,VALID,141,VALID,0.532939,
2003-04-25, 02:14:01,VALID,915.659,VALID,0,VALID,99.2525,VALID,0.237732,VALID,21.395,VALID,157,VALID,0.454975,
2003-04-25, 02:15:00,VALID,915.623,VALID,0,VALID,99.2653,VALID,0.152827,VALID,21.3915,VALID,151,VALID,0.202097,
2003-04-25, 02:16:01,VALID,915.604,VALID,0,VALID,99.2284,VALID,0.169808,VALID,21.4015,VALID,144,VALID,0.675495,
2003-04-25, 02:17:00,VALID,915.583,VALID,0,VALID,99.2271,VALID,0.220751,VALID,21.378,VALID,116,VALID,0.386308,
2003-04-25, 02:18:00,VALID,915.578,VALID,0,VALID,99.2157,VALID,0.20377,VALID,21.3912,VALID,119,VALID,0.636513,
2003-04-25, 02:19:01,VALID,915.566,VALID,0,VALID,99.1406,VALID,0.237732,VALID,21.3985,VALID,124,VALID,1.13839,
2003-04-25, 02:20:01,VALID,915.56,VALID,0,VALID,99.0669,VALID,0.135847,VALID,21.4149,VALID,106,VALID,1.48211,
2003-04-25, 02:21:01,VALID,915.56,VALID,0,VALID,98.9194,VALID,0.135847,VALID,21.4433,VALID,95,VALID,1.61607,
2003-04-25, 02:22:00,VALID,915.546,VALID,0,VALID,98.618,VALID,0.237732,VALID,21.4629,VALID,109,VALID,2.08498,
2003-04-25, 02:23:01,VALID,915.527,VALID,0,VALID,98.3535,VALID,0.169808,VALID,21.4953,VALID,147,VALID,1.20613,
2003-04-25, 02:24:01,VALID,915.522,VALID,0,VALID,97.9975,VALID,0.169808,VALID,21.5109,VALID,108,VALID,1.26748,
2003-04-25, 02:25:00,VALID,915.511,VALID,0,VALID,97.6605,VALID,0.237732,VALID,21.5602,VALID,98,VALID,0.975329,
2003-04-25, 02:26:01,VALID,915.487,VALID,0,VALID,97.3451,VALID,0.152827,VALID,21.577,VALID,128,VALID,0.945313,
2003-04-25, 02:27:01,VALID,915.447,VALID,0,VALID,97.1353,VALID,0.152827,VALID,21.5923,VALID,127,VALID,0.99815,
2003-04-25, 02:28:00,VALID,915.404,VALID,0,VALID,96.9853,VALID,0.220751,VALID,21.6085,VALID,143,VALID,1.15182,
2003-04-25, 02:29:01,VALID,915.367,VALID,0,VALID,96.7424,VALID,0.169808,VALID,21.6293,VALID,151,VALID,1.33404,
2003-04-25, 02:30:01,VALID,915.327,VALID,0,VALID,96.5657,VALID,0.152827,VALID,21.6088,VALID,153,VALID,1.6263,
2003-04-25, 02:31:01,VALID,915.301,VALID,0,VALID,96.3864,VALID,0.186789,VALID,21.5993,VALID,151,VALID,1.48237,
2003-04-25, 02:32:01,VALID,915.29,VALID,0,VALID,96.2172,VALID,0.135847,VALID,21.5921,VALID,134,VALID,1.03239,
2003-04-25, 02:33:01,VALID,915.249,VALID,0,VALID,96.0875,VALID,0.135847,VALID,21.605,VALID,149,VALID,0.7519,
2003-04-25, 02:34:01,VALID,915.241,VALID,0,VALID,95.9171,VALID,0.220751,VALID,21.6115,VALID,147,VALID,1.09498,
2003-04-25, 02:35:01,VALID,915.224,VALID,0,VALID,95.6463,VALID,0.135847,VALID,21.6018,VALID,146,VALID,1.56081,
2003-04-25, 02:36:01,VALID,915.207,VALID,0,VALID,95.5191,VALID,0.237732,VALID,21.602,VALID,115,VALID,0.621484,
2003-04-25, 02:37:01,VALID,915.184,VALID,0,VALID,94.7066,VALID,0.237732,VALID,21.5597,VALID,107,VALID,1.44571,
2003-04-25, 02:38:01,VALID,915.163,VALID,0,VALID,94.4497,VALID,0.186789,VALID,21.557,VALID,100,VALID,1.43476,
2003-04-25, 02:39:01,VALID,915.145,VALID,0,VALID,94.2068,VALID,0.186789,VALID,21.557,VALID,81,VALID,1.51879,
2003-04-25, 02:40:01,VALID,915.144,VALID,0,VALID,94.0364,VALID,0.0679233,VALID,21.5419,VALID,117,VALID,1.3087,
2003-04-25, 02:41:01,VALID,915.144,VALID,0,VALID,93.8431,VALID,0.118866,VALID,21.5352,VALID,110,VALID,1.42902,
2003-04-25, 02:42:01,VALID,915.141,VALID,0,VALID,93.7376,VALID,0.152827,VALID,21.509,VALID,102,VALID,1.46791,
2003-04-25, 02:43:01,VALID,915.13,VALID,0,VALID,93.627,VALID,0.0679233,VALID,21.5063,VALID,139,VALID,1.42399,
2003-04-25, 02:44:01,VALID,915.125,VALID,0,VALID,93.7401,VALID,0.0849042,VALID,21.4934,VALID,122,VALID,1.09786,
2003-04-25, 02:45:01,VALID,915.123,VALID,0,VALID,93.7847,VALID,0.101885,VALID,21.4767,VALID,124,VALID,1.42002,
2003-04-25, 02:46:01,VALID,915.124,VALID,0,VALID,93.9716,VALID,0.118866,VALID,21.4699,VALID,128,VALID,0.818026,
2003-04-25, 02:47:01,VALID,915.14,VALID,0,VALID,94.0987,VALID,0.135847,VALID,21.4411,VALID,114,VALID,0.914679,
2003-04-25, 02:48:01,VALID,915.146,VALID,0,VALID,93.9894,VALID,0,VALID,21.4222,VALID,113,VALID,1.12726,
2003-04-25, 02:49:00,VALID,915.148,VALID,0,VALID,93.7529,VALID,0.0509425,VALID,21.3864,VALID,158,VALID,1.21429,
2003-04-25, 02:50:00,VALID,915.177,VALID,0,VALID,93.6041,VALID,0.118866,VALID,21.3697,VALID,142,VALID,1.30489,
2003-04-25, 02:51:00,VALID,915.198,VALID,0,VALID,93.6778,VALID,0.0169808,VALID,21.3732,VALID,152,VALID,1.22054,
2003-04-25, 02:52:00,VALID,915.217,VALID,0,VALID,93.8533,VALID,-0.0169808,VALID,21.3804,VALID,151,VALID,1.238,
2003-04-25, 02:53:00,VALID,915.259,VALID,0,VALID,93.5609,VALID,-0.0339617,VALID,21.3635,VALID,151,VALID,2.19271,
2003-04-25, 02:54:00,VALID,915.285,VALID,0,VALID,93.7414,VALID,0.0849042,VALID,21.3427,VALID,150,VALID,1.55201,
2003-04-25, 02:55:00,VALID,915.322,VALID,0,VALID,93.9296,VALID,0.0849042,VALID,21.3694,VALID,152,VALID,2.14206,
2003-04-25, 02:56:00,VALID,915.338,VALID,0,VALID,93.6193,VALID,0.20377,VALID,21.3263,VALID,133,VALID,1.81387,
2003-04-25, 02:57:00,VALID,915.369,VALID,0,VALID,93.6079,VALID,0.101885,VALID,21.3236,VALID,137,VALID,1.22019,
2003-04-25, 02:58:00,VALID,915.388,VALID,0,VALID,93.6715,VALID,0.118866,VALID,21.3106,VALID,94,VALID,1.06208,
2003-04-25, 02:59:00,VALID,915.402,VALID,0,VALID,92.3299,VALID,0.118866,VALID,21.2618,VALID,107,VALID,1.88577,
2003-04-25, 03:00:00,VALID,915.408,VALID,0,VALID,90.9426,VALID,0.0169808,VALID,21.2591,VALID,102,VALID,2.398,
2003-04-25, 03:01:00,VALID,915.415,VALID,0,VALID,91.2809,VALID,0.0339617,VALID,21.2813,VALID,104,VALID,1.79978,
2003-04-25, 03:02:00,VALID,915.413,VALID,0,VALID,91.085,VALID,0.0679233,VALID,21.2818,VALID,113,VALID,1.25,
2003-04-25, 03:03:00,VALID,915.404,VALID,0,VALID,91.7005,VALID,0.0849042,VALID,21.2783,VALID,95,VALID,1.23269,
2003-04-25, 03:04:00,VALID,915.396,VALID,0,VALID,92.363,VALID,0.0169808,VALID,21.2788,VALID,98,VALID,1.48561,
2003-04-25, 03:05:00,VALID,915.385,VALID,0,VALID,93.0153,VALID,0.0679233,VALID,21.2659,VALID,80,VALID,1.42736,
2003-04-25, 03:06:00,VALID,915.381,VALID,0,VALID,93.4413,VALID,-0.0169808,VALID,21.2562,VALID,77,VALID,1.32422,
2003-04-25, 03:07:00,VALID,915.346,VALID,0,VALID,94.0886,VALID,-0.0169808,VALID,21.237,VALID,44,VALID,1.21575,
2003-04-25, 03:08:00,VALID,915.33,VALID,0,VALID,94.2691,VALID,-0.0849042,VALID,21.2203,VALID,56,VALID,1.12479,
2003-04-25, 03:09:00,VALID,915.309,VALID,0,VALID,94.6048,VALID,-0.0849042,VALID,21.2308,VALID,59,VALID,1.36782,
2003-04-25, 03:10:00,VALID,915.282,VALID,0,VALID,94.9355,VALID,0.0169808,VALID,21.2338,VALID,54,VALID,0.765625,
2003-04-25, 03:11:00,VALID,915.259,VALID,0,VALID,94.952,VALID,0,VALID,21.2211,VALID,96,VALID,0.894643,
2003-04-25, 03:12:00,VALID,915.236,VALID,0,VALID,95.0842,VALID,-0.118866,VALID,21.2082,VALID,109,VALID,1.34565,
2003-04-25, 03:13:00,VALID,915.187,VALID,0,VALID,95.3831,VALID,-0.101885,VALID,21.2074,VALID,111,VALID,1.24092,
2003-04-25, 03:14:00,VALID,915.157,VALID,0,VALID,95.3843,VALID,0,VALID,21.212,VALID,107,VALID,1.22862,
2003-04-25, 03:15:00,VALID,915.133,VALID,0,VALID,95.3894,VALID,-0.0509425,VALID,21.1783,VALID,115,VALID,1.65831,
2003-04-25, 03:16:00,VALID,915.128,VALID,0,VALID,95.5547,VALID,0.0339617,VALID,21.1915,VALID,120,VALID,0.968178,
2003-04-25, 03:17:00,VALID,915.103,VALID,0,VALID,95.2534,VALID,-0.0169808,VALID,21.1559,VALID,150,VALID,0.951069,
2003-04-25, 03:18:00,VALID,915.073,VALID,0.2,VALID,95.0219,VALID,-0.0169808,VALID,21.1465,VALID,121,VALID,1.1398,
2003-04-25, 03:19:00,VALID,915.052,VALID,0,VALID,94.7587,VALID,0,VALID,21.1438,VALID,142,VALID,1.10513,
2003-04-25, 03:20:00,VALID,915.052,VALID,0,VALID,94.6951,VALID,-0.101885,VALID,21.1206,VALID,134,VALID,1.15461,
2003-04-25, 03:21:00,VALID,915.042,VALID,0,VALID,94.6354,VALID,-0.101885,VALID,21.1265,VALID,133,VALID,1.19888,
2003-04-25, 03:22:00,VALID,915.066,VALID,0,VALID,94.1738,VALID,-0.0169808,VALID,21.1044,VALID,143,VALID,1.68007,
2003-04-25, 03:23:00,VALID,915.072,VALID,0,VALID,94.1102,VALID,-0.0509425,VALID,21.075,VALID,128,VALID,1.44872,
2003-04-25, 03:24:00,VALID,915.083,VALID,0.2,VALID,94.6417,VALID,-0.0509425,VALID,21.0718,VALID,148,VALID,1.98047,
2003-04-25, 03:25:00,VALID,915.081,VALID,0,VALID,95.322,VALID,-0.0169808,VALID,21.1077,VALID,150,VALID,1.6986,
2003-04-25, 03:26:00,VALID,915.093,VALID,0,VALID,95.6119,VALID,-0.135847,VALID,21.0945,VALID,141,VALID,1.41797,
2003-04-25, 03:27:00,VALID,915.1,VALID,0,VALID,95.7073,VALID,-0.0849042,VALID,21.0912,VALID,149,VALID,1.51624,
2003-04-25, 03:28:00,VALID,915.106,VALID,0,VALID,95.2254,VALID,-0.0169808,VALID,21.0268,VALID,117,VALID,1.45376,
2003-04-25, 03:29:00,VALID,915.099,VALID,0.2,VALID,94.6519,VALID,-0.118866,VALID,20.9688,VALID,106,VALID,1.80215,
2003-04-25, 03:30:00,VALID,915.094,VALID,0,VALID,94.8871,VALID,-0.118866,VALID,20.9718,VALID,115,VALID,1.17426,
2003-04-25, 03:31:00,VALID,915.088,VALID,0,VALID,94.8236,VALID,-0.152827,VALID,20.9303,VALID,94,VALID,1.58482,
2003-04-25, 03:32:00,VALID,915.055,VALID,0,VALID,95.233,VALID,-0.186789,VALID,20.9238,VALID,100,VALID,1.24867,
2003-04-25, 03:33:00,VALID,915.042,VALID,0,VALID,95.4505,VALID,-0.186789,VALID,20.8812,VALID,122,VALID,1.10431,
2003-04-25, 03:34:00,VALID,915.021,VALID,0.2,VALID,95.6234,VALID,-0.0339617,VALID,20.8583,VALID,129,VALID,1.54461,